Location: ???????
(55.2903°N, 39.1554°E)
Time: 21:07:42
(UTC+00:00)

COBE Rocket - Pass Details

Date: 14 April 2024
Orbit: 676 x 778 km, 97.1° (Epoch: 22 May)

Event Time Altitude Azimuth Distance (km) Brightness Sun altitude
Rises 00:30:18 0° 10° (N) 3,103 8.0 -14.4°
Reaches altitude 10° 00:32:40 10° 3° (N) 2,167 7.0 -14.2°
Maximum altitude 00:37:06 41° 294° (WNW) 992 4.4 -13.7°
Enters shadow 00:39:50 20° 235° (SW) 1,542 4.9 -13.4°
